Flag for Germany Weather past 2 weeks in Chemnitz, Saxony, Germany

Now
55 °F

Sunny.


Feels Like: 51 °F
Forecast: 42 / 48 °F
Wind: 16 mph from Southwest

Location: Altenburg Nobitz

Current Time: Oct 21, 2014 at 7:38:38 PM

Latest Report: Oct 21, 2014 at 6:50 PM


Visibility: 10 mi

Pressure: 29.56 "Hg

Humidity: 72%

Dew point: 46 °F

Location of ChemnitzLocation

Historic Weather in Chemnitz — Graph

°F

Chemnitz temperature yesterday

Maximum temperature yesterday: 63 °F (at 2:50 PM)
Minimum temperature yesterday: 57 °F (at 6:20 PM)
Average temperature yesterday: 60 °F

Past Weeks' High & Low Weather Summary

 TemperatureHumidityPressure
High75 °F (Oct 9, 2:50 PM)100% (Oct 8, 8:20 AM)30.24 "Hg (Oct 8, 8:20 AM)
Low50 °F (Oct 7, 8:20 AM)54% (Oct 9, 2:50 PM)29.56 "Hg (Oct 21, 6:20 PM)
Average62 °F77%29.89 "Hg
* Reported Oct 6 6:20 PM — Oct 21 6:20 PM, Chemnitz, Weather by CustomWeather, © 2014

Note: Actual official high and low records may vary slightly from our data, if they occured in-between our weather recording intervals... More about our weather records

Advertising

Chemnitz weather history for previous 24 hours

 ConditionsComfort  
Time TempWeatherWind HumidityBarometerVisibility
6:20 PM
Oct 21
57 °FSunny.13 mph67%29.56 "Hg10 mi
5:50 PM55 °FPassing clouds.10 mph72%29.59 "HgN/A
5:20 PM55 °FPassing clouds.7 mph72%29.59 "HgN/A
4:50 PM55 °FSunny.9 mph72%29.62 "Hg10 mi
4:20 PM55 °FLight rain. Broken clouds.15 mph72%29.65 "HgN/A
3:50 PM55 °FLight rain. Scattered clouds.15 mph72%29.68 "HgN/A
3:20 PM57 °FScattered clouds.17 mph63%29.68 "HgN/A
2:50 PM59 °FScattered clouds.15 mph63%29.71 "HgN/A
2:20 PM57 °FScattered clouds.15 mph67%29.71 "HgN/A
1:50 PM57 °FScattered clouds.17 mph67%29.74 "HgN/A
1:20 PM57 °FSunny.16 mph67%29.77 "Hg10 mi
12:50 PM57 °FSunny.16 mph67%29.77 "Hg10 mi
12:20 PM57 °FSunny.15 mph72%29.80 "Hg10 mi
11:50 AM57 °FSunny.18 mph67%29.80 "Hg10 mi
11:20 AM57 °FSunny.15 mph72%29.83 "Hg10 mi
10:50 AM55 °FSunny.14 mph77%29.83 "Hg10 mi
10:20 AM54 °FSunny.14 mph82%29.83 "Hg10 mi
9:50 AM54 °FSunny.12 mph82%29.86 "Hg10 mi
9:20 AM52 °FSunny.12 mph82%29.86 "Hg10 mi
8:50 AM52 °FSunny.12 mph82%29.86 "Hg10 mi
Weather by CustomWeather, © 2014

See weather overviewHow to use our weather pages